Location: Landeleau
(48.2273°N, 3.7285°W)
Time: 08:39:52
(UTC+00:00)

STARLINK-1082 - Pass Details

Date: 30 March 2020
Orbit: 548 x 551 km, 53.0° (Epoch: 26 May)

Event Time Altitude Azimuth Distance (km) Brightness Sun altitude
Rises 19:25:48 0° 296° (WNW) 2,731 9.3 -7.8°
Reaches altitude 10° 19:28:03 10° 293° (WNW) 1,834 8.0 -8.2°
Maximum altitude 19:32:10 63° 213° (SSW) 621 4.0 -8.8°
Enters shadow 19:36:13 10° 132° (SE) 1,806 5.7 -9.5°
